DW7918 Weather Reports


Display with metric or nautical units.
time (UTC)temp
F
wind
direction
speed
MPH
gust
MPH
rain 1hr
in
rain 24hr
in
rain mn
in
humidity
%
barometer
mb
20260902174403 91 316 4.0 8.0 0.00 0.06 0.00 48 1015.3
20260902174203 91 314 5.0 8.0 0.00 0.06 0.00 48 1015.3
20260902174003 91 311 5.0 8.0 0.00 0.06 0.00 47 1015.3
20260902173803 91 310 5.0 8.0 0.00 0.06 0.00 48 1015.3
20260902173603 91 307 5.0 8.0 0.00 0.06 0.00 47 1015.4
20260902173424 91 306 5.0 8.0 0.00 0.06 0.00 47 1015.4
20260902173203 91 306 4.0 8.0 0.00 0.06 0.00 49 1015.3
20260902173024 91 307 4.0 8.0 0.00 0.06 0.00 47 1015.4
20260902172803 91 310 4.0 7.0 0.00 0.06 0.00 50 1015.4
20260902172603 91 311 3.0 7.0 0.00 0.06 0.00 47 1015.4
20260902172403 91 314 2.0 7.0 0.00 0.06 0.00 51 1015.4
20260902172203 91 313 2.0 7.0 0.00 0.06 0.00 51 1015.4
20260902172004 91 312 1.0 7.0 0.00 0.06 0.00 50 1015.4
20260902171824 91 306 1.0 7.0 0.00 0.06 0.00 51 1015.4
20260902171603 90 306 1.0 6.0 0.00 0.06 0.00 50 1015.5
20260902171403 90 305 1.0 6.0 0.00 0.06 0.00 52 1015.5
20260902171224 90 305 2.0 7.0 0.00 0.06 0.00 52 1015.5
20260902171003 90 306 2.0 7.0 0.00 0.06 0.00 50 1015.5
20260902170824 90 305 2.0 7.0 0.00 0.06 0.00 52 1015.5
20260902170603 90 306 3.0 7.0 0.00 0.06 0.00 50 1015.5
20260902170403 90 309 3.0 7.0 0.00 0.06 0.00 49 1015.5
20260902170203 89 308 4.0 6.0 0.00 0.06 0.00 51 1015.6
20260902170003 89 308 3.0 6.0 0.00 0.06 0.00 51 1015.6
20260902165803 89 311 3.0 6.0 0.00 0.06 0.00 50 1015.6
20260902165603 89 313 3.0 6.0 0.00 0.06 0.00 53 1015.7
20260902165403 89 316 3.0 6.0 0.00 0.06 0.00 52 1015.7
20260902165224 89 318 3.0 5.0 0.00 0.06 0.00 51 1015.7
20260902165003 89 318 4.0 7.0 0.00 0.06 0.00 51 1015.7
20260902164803 89 319 3.0 7.0 0.00 0.06 0.00 52 1015.7
20260902164603 89 321 3.0 7.0 0.00 0.06 0.00 54 1015.8
20260902164403 89 321 3.0 7.0 0.00 0.06 0.00 53 1015.8
20260902164203 89 326 3.0 7.0 0.00 0.06 0.00 52 1015.8
20260902164003 88 337 2.0 5.0 0.00 0.06 0.00 55 1015.8
20260902163803 88 339 2.0 5.0 0.00 0.06 0.00 56 1015.8
20260902163603 88 344 2.0 5.0 0.00 0.06 0.00 53 1015.8
20260902163403 88 344 2.0 6.0 0.00 0.06 0.00 54 1015.9
20260902163203 88 343 3.0 6.0 0.00 0.06 0.00 56 1015.9
20260902163003 88 346 3.0 6.0 0.00 0.06 0.00 57 1015.9
20260902162803 88 353 3.0 6.0 0.00 0.06 0.00 53 1015.9
20260902162603 88 355 3.0 6.0 0.00 0.06 0.00 54 1015.9
20260902162403 87 359 3.0 5.0 0.00 0.06 0.00 56 1015.9
20260902162203 87 6 3.0 5.0 0.00 0.06 0.00 56 1015.9
20260902162004 87 8 3.0 5.0 0.00 0.06 0.00 57 1015.9
20260902161824 87 8 3.0 6.0 0.00 0.06 0.00 56 1015.9
20260902161603 87 11 4.0 6.0 0.00 0.06 0.00 56 1015.9
20260902161403 87 13 4.0 6.0 0.00 0.06 0.00 55 1016.0
20260902161224 87 15 4.0 6.0 0.00 0.06 0.00 58 1016.0
20260902161003 87 7 3.0 6.0 0.00 0.06 0.00 58 1016.0
20260902160803 87 356 3.0 8.0 0.00 0.06 0.00 57 1016.0
20260902160603 87 347 3.0 8.0 0.00 0.06 0.00 56 1016.1
20260902160403 87 337 3.0 8.0 0.00 0.06 0.00 59 1016.1
20260902160224 86 328 3.0 8.0 0.00 0.06 0.00 58 1016.1
20260902160004 86 330 3.0 8.0 0.00 0.06 0.00 57 1016.1
20260902155803 86 329 3.0 6.0 0.00 0.06 0.00 58 1016.1
20260902155603 86 332 3.0 5.0 0.00 0.06 0.00 61 1016.1
20260902155403 86 335 3.0 5.0 0.00 0.06 0.00 59 1016.1
20260902155203 86 335 3.0 5.0 0.00 0.06 0.00 60 1016.1
20260902155003 86 329 3.0 7.0 0.00 0.06 0.00 59 1016.1
20260902154803 85 331 3.0 7.0 0.00 0.06 0.00 59 1016.1
20260902154603 85 332 3.0 7.0 0.00 0.06 0.00 59 1016.1
20260902154403 85 331 4.0 7.0 0.00 0.06 0.00 59 1016.2
20260902154203 85 340 4.0 7.0 0.00 0.06 0.00 59 1016.1
20260902154003 85 351 3.0 6.0 0.00 0.06 0.00 60 1016.1
20260902153803 85 355 3.0 7.0 0.00 0.06 0.00 60 1016.2
20260902153603 85 1 3.0 7.0 0.00 0.06 0.00 60 1016.2
20260902153403 85 4 3.0 7.0 0.00 0.06 0.00 61 1016.2
20260902153203 85 360 3.0 7.0 0.00 0.06 0.00 60 1016.1
20260902153003 85 358 3.0 7.0 0.00 0.06 0.00 60 1016.1
20260902152803 84 2 2.0 5.0 0.00 0.06 0.00 62 1016.1
20260902152603 84 10 2.0 5.0 0.00 0.06 0.00 61 1016.1
20260902152424 84 13 2.0 5.0 0.00 0.06 0.00 61 1016.1
20260902152203 84 1 3.0 7.0 0.00 0.06 0.00 61 1016.0
20260902152003 85 345 3.0 7.0 0.00 0.06 0.00 63 1016.0
20260902151803 85 328 4.0 7.0 0.00 0.06 0.00 62 1016.0
20260902151603 85 314 4.0 7.0 0.00 0.06 0.00 61 1015.9
20260902151403 85 305 4.0 7.0 0.00 0.06 0.00 59 1015.8
20260902151203 85 302 4.0 7.0 0.00 0.06 0.00 59 1015.6
20260902151003 85 301 4.0 7.0 0.00 0.06 0.00 60 1015.6
20260902150803 85 301 4.0 7.0 0.00 0.06 0.00 62 1015.6
20260902150624 85 301 3.0 7.0 0.00 0.06 0.00 60 1015.5
20260902150403 85 304 3.0 7.0 0.00 0.06 0.00 62 1015.5
20260902150203 85 304 3.0 6.0 0.00 0.06 0.00 62 1015.6
20260902150003 84 303 3.0 6.0 0.00 0.06 0.00 61 1015.7
20260902145803 84 309 3.0 6.0 0.00 0.06 0.00 61 1015.7
20260902145603 84 312 3.0 6.0 0.00 0.06 0.00 62 1015.7
20260902145403 84 308 3.0 6.0 0.00 0.06 0.00 62 1015.7
20260902145203 84 309 3.0 6.0 0.00 0.06 0.00 62 1015.7
20260902145003 84 315 3.0 6.0 0.00 0.06 0.00 62 1015.6
20260902144803 83 314 3.0 6.0 0.00 0.06 0.00 63 1015.7
20260902144624 83 311 3.0 6.0 0.00 0.06 0.00 62 1015.7
20260902144403 83 313 3.0 6.0 0.00 0.06 0.00 63 1015.7
20260902144203 83 319 3.0 6.0 0.00 0.06 0.00 62 1015.7
20260902144003 83 319 3.0 6.0 0.00 0.06 0.00 63 1015.7
20260902143803 83 318 3.0 6.0 0.00 0.06 0.00 62 1015.6
20260902143624 83 321 3.0 6.0 0.00 0.06 0.00 63 1015.6
20260902143403 82 324 3.0 6.0 0.00 0.06 0.00 62 1015.7
20260902143203 82 314 3.0 6.0 0.00 0.06 0.00 62 1015.7
20260902143003 82 312 3.0 6.0 0.00 0.06 0.00 63 1015.6
20260902142803 82 314 2.0 5.0 0.00 0.06 0.00 62 1015.7
20260902142624 82 319 2.0 5.0 0.00 0.06 0.00 63 1015.7
20260902142403 82 331 3.0 5.0 0.00 0.06 0.00 63 1015.7
20260902142203 82 348 3.0 5.0 0.00 0.06 0.00 64 1015.6
20260902142003 82 360 3.0 5.0 0.00 0.06 0.00 63 1015.7
20260902141803 82 8 3.0 6.0 0.00 0.06 0.00 63 1015.6
20260902141624 82 12 3.0 6.0 0.00 0.06 0.00 63 1015.6
20260902141403 82 14 2.0 6.0 0.00 0.06 0.00 64 1015.7
20260902141203 82 18 2.0 6.0 0.00 0.06 0.00 63 1015.7
20260902141003 82 15 2.0 6.0 0.00 0.06 0.00 64 1015.6
20260902140803 82 7 2.0 5.0 0.00 0.06 0.00 64 1015.6
20260902140624 82 355 2.0 5.0 0.00 0.06 0.00 65 1015.7
20260902140424 81 341 2.0 6.0 0.00 0.06 0.00 63 1015.7
20260902140203 81 317 3.0 6.0 0.00 0.06 0.00 63 1015.6
20260902140024 81 310 3.0 6.0 0.00 0.06 0.00 63 1015.6
20260902135803 81 306 4.0 6.0 0.00 0.06 0.00 63 1015.5
20260902135603 81 306 4.0 6.0 0.00 0.06 0.00 64 1015.5
20260902135403 81 305 3.0 6.0 0.00 0.06 0.00 63 1015.4
20260902135203 81 304 3.0 6.0 0.00 0.06 0.00 64 1015.4
20260902135003 81 302 3.0 6.0 0.00 0.06 0.00 64 1015.4
20260902134803 81 305 3.0 6.0 0.00 0.06 0.00 64 1015.4
20260902134603 81 306 4.0 6.0 0.00 0.06 0.00 64 1015.4
20260902134424 80 306 4.0 6.0 0.00 0.06 0.00 64 1015.4
20260902134203 80 307 3.0 6.0 0.00 0.06 0.00 64 1015.4
20260902134003 80 312 3.0 6.0 0.00 0.06 0.00 64 1015.5
20260902133803 80 311 3.0 6.0 0.00 0.06 0.00 65 1015.5
20260902133624 80 310 3.0 6.0 0.00 0.06 0.00 65 1015.4
20260902133403 80 309 3.0 5.0 0.00 0.06 0.00 65 1015.4
20260902133203 80 306 3.0 4.0 0.00 0.06 0.00 65 1015.4
20260902133003 80 303 3.0 5.0 0.00 0.06 0.00 65 1015.5
20260902132803 80 303 2.0 5.0 0.00 0.06 0.00 66 1015.5
20260902132603 79 303 2.0 5.0 0.00 0.06 0.00 65 1015.4
20260902132403 79 300 2.0 5.0 0.00 0.06 0.00 65 1015.4
20260902132203 79 303 2.0 5.0 0.00 0.06 0.00 66 1015.5
20260902132003 79 304 2.0 4.0 0.00 0.06 0.00 66 1015.5
20260902131803 79 302 3.0 7.0 0.00 0.06 0.00 66 1015.5
20260902131603 79 301 3.0 7.0 0.00 0.06 0.00 66 1015.5
20260902131403 79 302 3.0 7.0 0.00 0.06 0.00 67 1015.5
20260902131203 79 301 2.0 7.0 0.00 0.06 0.00 67 1015.5
20260902131003 79 299 2.0 7.0 0.00 0.06 0.00 66 1015.5
20260902130803 78 300 1.0 5.0 0.00 0.06 0.00 67 1015.5
20260902130603 78 298 1.0 5.0 0.00 0.06 0.00 67 1015.5
20260902130403 78 300 0.0 4.0 0.00 0.06 0.00 67 1015.5
20260902130203 78 0 0.0 0.0 0.00 0.06 0.00 68 1015.6
20260902130003 78 0 0.0 0.0 0.00 0.06 0.00 68 1015.6
20260902125803 78 0 0.0 0.0 0.00 0.06 0.00 67 1015.6
20260902125603 77 0 0.0 0.0 0.00 0.06 0.00 68 1015.6
20260902125403 77 0 0.0 0.0 0.00 0.06 0.00 68 1015.6
20260902125224 77 0 0.0 0.0 0.00 0.06 0.00 69 1015.6
20260902125003 77 0 0.0 0.0 0.00 0.06 0.00 68 1015.6
20260902124803 77 0 0.0 0.0 0.00 0.06 0.00 69 1015.5
20260902124603 77 0 0.0 0.0 0.00 0.06 0.00 69 1015.6
20260902124424 76 0 0.0 0.0 0.00 0.06 0.00 70 1015.6
20260902124203 76 0 0.0 0.0 0.00 0.06 0.00 70 1015.7
20260902124024 76 0 0.0 0.0 0.00 0.06 0.00 70 1015.7
20260902123803 76 0 0.0 0.0 0.00 0.06 0.00 71 1015.7
20260902123603 76 0 0.0 0.0 0.00 0.06 0.00 71 1015.7
20260902123403 76 0 0.0 0.0 0.00 0.06 0.00 71 1015.7
20260902123203 76 0 0.0 0.0 0.00 0.06 0.00 71 1015.8
20260902123024 75 0 0.0 0.0 0.00 0.06 0.00 71 1015.7
20260902122803 75 0 0.0 0.0 0.00 0.06 0.00 72 1015.8
20260902122624 75 0 0.0 0.0 0.00 0.06 0.00 72 1015.8
20260902122403 75 0 0.0 0.0 0.00 0.06 0.00 72 1015.8
20260902122203 75 0 0.0 0.0 0.00 0.06 0.00 72 1015.8
20260902122003 75 0 0.0 0.0 0.00 0.06 0.00 72 1015.8
20260902121803 75 0 0.0 0.0 0.00 0.06 0.00 72 1015.8
20260902121603 75 0 0.0 0.0 0.00 0.06 0.00 72 1015.8
20260902121403 75 0 0.0 0.0 0.00 0.06 0.00 73 1015.8
20260902121203 75 0 0.0 0.0 0.00 0.06 0.00 73 1015.8
20260902121003 75 0 0.0 0.0 0.00 0.06 0.00 73 1015.8
20260902120803 74 0 0.0 0.0 0.00 0.06 0.00 73 1015.8
20260902120603 74 0 0.0 0.0 0.00 0.06 0.00 73 1015.8
20260902120403 74 0 0.0 0.0 0.00 0.06 0.00 73 1015.7
20260902120203 74 0 0.0 0.0 0.00 0.06 0.00 73 1015.7
20260902120003 74 0 0.0 0.0 0.00 0.06 0.00 74 1015.7
20260902115803 74 0 0.0 0.0 0.00 0.06 0.00 74 1015.7
20260902115603 74 0 0.0 0.0 0.00 0.06 0.00 75 1015.7
20260902115403 74 0 0.0 0.0 0.00 0.06 0.00 75 1015.7
20260902115203 74 0 0.0 0.0 0.00 0.06 0.00 75 1015.7
20260902115003 74 0 0.0 0.0 0.00 0.06 0.00 75 1015.7
20260902114803 74 0 0.0 0.0 0.00 0.06 0.00 75 1015.6
20260902114603 73 0 0.0 0.0 0.00 0.06 0.00 75 1015.5
20260902114403 73 0 0.0 0.0 0.00 0.06 0.00 75 1015.6
20260902114224 73 0 0.0 0.0 0.00 0.06 0.00 75 1015.6
20260902114003 73 0 0.0 0.0 0.00 0.06 0.00 76 1015.6
20260902113803 73 0 0.0 0.0 0.00 0.06 0.00 75 1015.5
20260902113603 73 0 0.0 0.0 0.00 0.06 0.00 75 1015.5
20260902113424 72 0 0.0 0.0 0.00 0.06 0.00 75 1015.6
20260902113203 72 0 0.0 0.0 0.00 0.06 0.00 75 1015.5
20260902113003 72 0 0.0 0.0 0.00 0.06 0.00 75 1015.5
20260902112803 73 0 0.0 0.0 0.00 0.06 0.00 75 1015.6
20260902112603 73 0 0.0 0.0 0.00 0.06 0.00 76 1015.5
20260902112403 73 0 0.0 0.0 0.00 0.06 0.00 76 1015.5
20260902112203 73 0 0.0 0.0 0.00 0.06 0.00 76 1015.5
20260902112003 73 0 0.0 0.0 0.00 0.06 0.00 77 1015.5
20260902111803 73 0 0.0 0.0 0.00 0.06 0.00 77 1015.5
20260902111603 73 0 0.0 0.0 0.00 0.06 0.00 77 1015.5
20260902111403 72 0 0.0 0.0 0.00 0.06 0.00 76 1015.5
20260902111224 72 0 0.0 0.0 0.00 0.06 0.00 76 1015.5
20260902111024 72 0 0.0 0.0 0.00 0.06 0.00 76 1015.6
20260902110824 72 0 0.0 0.0 0.00 0.06 0.00 75 1015.6
20260902110603 72 0 0.0 0.0 0.00 0.06 0.00 75 1015.5
20260902110403 72 0 0.0 0.0 0.00 0.06 0.00 75 1015.5
20260902110203 72 0 0.0 0.0 0.00 0.06 0.00 75 1015.5
20260902110005 72 0 0.0 0.0 0.00 0.06 0.00 74 1015.6
20260902105803 72 0 0.0 0.0 0.00 0.06 0.00 74 1015.5
20260902105603 72 0 0.0 0.0 0.00 0.06 0.00 74 1015.5
20260902105424 72 0 0.0 0.0 0.00 0.06 0.00 74 1015.6
20260902105203 72 0 0.0 0.0 0.00 0.06 0.00 74 1015.6
20260902105024 72 0 0.0 0.0 0.00 0.06 0.00 75 1015.5
20260902104803 72 0 0.0 0.0 0.00 0.06 0.00 75 1015.5
20260902104603 72 0 0.0 0.0 0.00 0.06 0.00 75 1015.6
20260902104403 72 0 0.0 0.0 0.00 0.06 0.00 75 1015.6
20260902104203 72 0 0.0 0.0 0.00 0.06 0.00 74 1015.6
20260902104003 72 0 0.0 0.0 0.00 0.06 0.00 73 1015.7
20260902103803 72 0 0.0 0.0 0.00 0.06 0.00 73 1015.6
20260902103603 72 0 0.0 0.0 0.00 0.06 0.00 72 1015.6
20260902103403 72 0 0.0 0.0 0.00 0.06 0.00 72 1015.6
20260902103203 72 0 0.0 0.0 0.00 0.06 0.00 72 1015.6
20260902103024 72 0 0.0 0.0 0.00 0.06 0.00 72 1015.6
20260902102803 72 0 0.0 0.0 0.00 0.06 0.00 73 1015.6
20260902102603 72 0 0.0 0.0 0.00 0.06 0.00 73 1015.6
20260902102424 72 0 0.0 0.0 0.00 0.06 0.00 73 1015.6
20260902102203 72 0 0.0 0.0 0.00 0.06 0.00 72 1015.6
20260902102003 72 0 0.0 0.0 0.00 0.06 0.00 72 1015.6
20260902101824 72 0 0.0 0.0 0.00 0.06 0.00 72 1015.6
20260902101603 72 0 0.0 0.0 0.00 0.06 0.00 72 1015.6
20260902101403 72 0 0.0 0.0 0.00 0.06 0.00 72 1015.5
20260902101203 73 0 0.0 0.0 0.00 0.06 0.00 72 1015.6
20260902101003 73 0 0.0 0.0 0.00 0.06 0.00 72 1015.5
20260902100803 73 0 0.0 0.0 0.00 0.06 0.00 72 1015.5
20260902100603 73 0 0.0 0.0 0.00 0.06 0.00 72 1015.6
20260902100403 73 0 0.0 0.0 0.00 0.06 0.00 72 1015.5
20260902100203 73 0 0.0 0.0 0.00 0.06 0.00 72 1015.5
20260902100003 73 0 0.0 0.0 0.00 0.06 0.00 72 1015.5
20260902095803 73 0 0.0 0.0 0.00 0.06 0.00 72 1015.6
20260902095603 73 0 0.0 0.0 0.00 0.06 0.00 72 1015.6
20260902095424 73 0 0.0 0.0 0.00 0.06 0.00 72 1015.5
20260902095203 73 0 0.0 0.0 0.00 0.06 0.00 72 1015.5
20260902095003 73 0 0.0 0.0 0.00 0.06 0.00 72 1015.6
20260902094803 74 0 0.0 0.0 0.00 0.06 0.00 72 1015.5
20260902094624 74 0 0.0 0.0 0.00 0.06 0.00 71 1015.5
20260902094424 74 0 0.0 0.0 0.00 0.06 0.00 72 1015.5
20260902094203 74 0 0.0 0.0 0.00 0.06 0.00 72 1015.5
20260902094003 74 0 0.0 0.0 0.00 0.06 0.00 73 1015.5
20260902093803 74 0 0.0 0.0 0.00 0.06 0.00 73 1015.4
20260902093624 74 0 0.0 0.0 0.00 0.06 0.00 73 1015.4
20260902093403 74 0 0.0 0.0 0.00 0.06 0.00 74 1015.5
20260902093203 74 0 0.0 0.0 0.00 0.06 0.00 74 1015.5
20260902093024 74 0 0.0 0.0 0.00 0.06 0.00 74 1015.4
20260902092803 74 0 0.0 0.0 0.00 0.06 0.00 74 1015.4
20260902092603 74 0 0.0 0.0 0.00 0.06 0.00 74 1015.4
20260902092403 74 0 0.0 0.0 0.00 0.06 0.00 74 1015.4
20260902092203 74 0 0.0 0.0 0.00 0.06 0.00 74 1015.4
20260902092003 74 0 0.0 0.0 0.00 0.06 0.00 74 1015.4
20260902091803 74 0 0.0 0.0 0.00 0.06 0.00 74 1015.4
20260902091603 75 0 0.0 0.0 0.00 0.06 0.00 74 1015.4
20260902091403 75 0 0.0 0.0 0.00 0.06 0.00 74 1015.4
20260902091224 75 0 0.0 0.0 0.00 0.06 0.00 74 1015.5
20260902091003 75 0 0.0 0.0 0.00 0.06 0.00 74 1015.3
20260902090803 75 0 0.0 0.0 0.00 0.06 0.00 73 1015.3
20260902090624 75 0 0.0 0.0 0.00 0.06 0.00 73 1015.3
20260902090403 75 0 0.0 0.0 0.00 0.06 0.00 73 1015.3
20260902090203 75 0 0.0 0.0 0.00 0.06 0.00 74 1015.3
20260902090003 75 0 0.0 0.0 0.00 0.06 0.00 74 1015.3
20260902085824 75 0 0.0 0.0 0.00 0.06 0.00 74 1015.3
20260902085603 75 0 0.0 0.0 0.00 0.06 0.00 74 1015.2
20260902085424 75 0 0.0 0.0 0.00 0.06 0.00 74 1015.3
20260902085203 75 0 0.0 0.0 0.00 0.06 0.00 74 1015.2
20260902085024 75 0 0.0 0.0 0.00 0.06 0.00 75 1015.2
20260902084824 75 0 0.0 0.0 0.00 0.06 0.00 74 1015.2
20260902084603 75 0 0.0 0.0 0.00 0.06 0.00 75 1015.2
20260902084403 75 0 0.0 0.0 0.00 0.06 0.00 74 1015.2
20260902084203 75 0 0.0 0.0 0.00 0.06 0.00 74 1015.2
20260902084003 75 0 0.0 0.0 0.00 0.06 0.00 73 1015.2
20260902083803 75 0 0.0 0.0 0.00 0.06 0.00 73 1015.1
20260902083624 75 0 0.0 0.0 0.00 0.06 0.00 73 1015.1
20260902083403 75 0 0.0 0.0 0.00 0.06 0.00 73 1015.1
20260902083224 75 0 0.0 0.0 0.00 0.06 0.00 73 1015.1
20260902083003 75 0 0.0 0.0 0.00 0.06 0.00 73 1015.1
20260902082803 75 0 0.0 0.0 0.00 0.06 0.00 73 1015.1
20260902082604 75 0 0.0 0.0 0.00 0.06 0.00 73 1015.1
20260902082403 75 0 0.0 0.0 0.00 0.06 0.00 73 1015.1
20260902082224 75 0 0.0 0.0 0.00 0.06 0.00 73 1015.1
20260902082003 75 0 0.0 0.0 0.00 0.06 0.00 73 1015.1
20260902081803 75 0 0.0 0.0 0.00 0.06 0.00 73 1015.0
20260902081603 75 0 0.0 0.0 0.00 0.06 0.00 73 1015.1
20260902081424 76 0 0.0 0.0 0.00 0.06 0.00 74 1015.1
20260902081203 76 0 0.0 0.0 0.00 0.06 0.00 75 1015.1
20260902081024 76 0 0.0 0.0 0.00 0.06 0.00 75 1015.1
20260902080824 76 0 0.0 0.0 0.00 0.06 0.00 75 1015.1
20260902080624 75 0 0.0 0.0 0.00 0.06 0.00 75 1015.1
20260902080403 75 0 0.0 0.0 0.00 0.06 0.00 75 1015.1
20260902080203 75 0 0.0 0.0 0.00 0.06 0.00 75 1015.2
20260902080024 75 0 0.0 0.0 0.00 0.06 0.00 75 1015.2
20260902075803 75 0 0.0 0.0 0.00 0.06 0.00 75 1015.2
20260902075603 75 0 0.0 0.0 0.00 0.06 0.00 75 1015.2
20260902075403 75 0 0.0 0.0 0.00 0.06 0.00 75 1015.2
20260902075203 75 0 0.0 0.0 0.00 0.06 0.00 75 1015.3
20260902075024 75 0 0.0 0.0 0.00 0.06 0.00 74 1015.3
20260902074803 75 0 0.0 0.0 0.00 0.06 0.00 75 1015.3
20260902074624 75 0 0.0 0.0 0.00 0.06 0.00 75 1015.3
20260902074424 75 0 0.0 0.0 0.00 0.06 0.00 74 1015.3
20260902074203 75 0 0.0 0.0 0.00 0.06 0.00 74 1015.2
20260902074003 75 0 0.0 0.0 0.00 0.06 0.00 73 1015.2
20260902073803 75 0 0.0 0.0 0.00 0.06 0.00 73 1015.2
20260902073603 75 0 0.0 0.0 0.00 0.06 0.00 73 1015.2
20260902073403 76 0 0.0 0.0 0.00 0.06 0.00 73 1015.1
20260902073203 76 0 0.0 0.0 0.00 0.06 0.00 73 1015.1
20260902073003 76 0 0.0 0.0 0.00 0.06 0.00 73 1015.1
20260902072803 76 0 0.0 0.0 0.00 0.06 0.00 73 1015.1
20260902072603 76 0 0.0 0.0 0.00 0.06 0.00 73 1015.2
20260902072403 76 0 0.0 0.0 0.00 0.06 0.00 74 1015.2
20260902072203 76 0 0.0 0.0 0.00 0.06 0.00 76 1015.1
20260902072003 76 0 0.0 0.0 0.00 0.06 0.00 77 1015.2
20260902071803 76 0 0.0 0.0 0.00 0.06 0.00 77 1015.2
20260902071603 76 0 0.0 0.0 0.00 0.06 0.00 77 1015.1
20260902071403 76 0 0.0 0.0 0.00 0.06 0.00 77 1015.1
20260902071224 76 0 0.0 0.0 0.00 0.06 0.00 77 1015.1
20260902071003 76 0 0.0 0.0 0.00 0.06 0.00 78 1015.1
20260902070803 76 0 0.0 0.0 0.00 0.06 0.00 78 1015.1
20260902070603 76 0 0.0 0.0 0.00 0.06 0.00 78 1015.1
20260902070403 76 0 0.0 0.0 0.00 0.06 0.00 79 1015.1
20260902070203 76 0 0.0 0.0 0.00 0.06 0.00 79 1015.1
20260902070004 76 0 0.0 0.0 0.00 0.06 0.00 79 1015.0
20260902065803 76 0 0.0 0.0 0.00 0.06 0.00 79 1015.0
20260902065603 76 0 0.0 0.0 0.00 0.06 0.00 79 1015.0
20260902065403 76 0 0.0 0.0 0.00 0.06 0.00 79 1015.0
20260902065203 75 0 0.0 0.0 0.00 0.06 0.00 79 1015.1
20260902065003 75 0 0.0 0.0 0.00 0.06 0.00 79 1015.1
20260902064803 75 0 0.0 0.0 0.00 0.06 0.00 78 1015.0
20260902064603 75 0 0.0 0.0 0.00 0.06 0.00 78 1015.0
20260902064403 75 0 0.0 0.0 0.00 0.06 0.00 77 1015.0
20260902064203 75 0 0.0 0.0 0.00 0.06 0.00 77 1015.0
20260902064003 75 0 0.0 0.0 0.00 0.06 0.00 77 1015.0
20260902063824 75 0 0.0 0.0 0.00 0.06 0.00 77 1015.0
20260902063603 75 0 0.0 0.0 0.00 0.06 0.00 77 1015.0
20260902063403 75 0 0.0 0.0 0.00 0.06 0.00 77 1015.0
20260902063203 75 0 0.0 0.0 0.00 0.06 0.00 77 1015.0
20260902063003 75 0 0.0 0.0 0.00 0.06 0.00 77 1015.0
20260902062803 75 0 0.0 0.0 0.00 0.06 0.00 77 1014.9
20260902062603 76 0 0.0 0.0 0.00 0.06 0.00 77 1014.9
20260902062403 76 0 0.0 0.0 0.00 0.06 0.00 77 1015.0
20260902062203 76 0 0.0 0.0 0.00 0.06 0.00 78 1015.0
20260902062004 76 0 0.0 0.0 0.00 0.06 0.00 78 1015.0
20260902061803 76 0 0.0 0.0 0.00 0.06 0.00 78 1015.0
20260902061603 76 0 0.0 0.0 0.00 0.06 0.00 78 1015.0
20260902061403 76 0 0.0 0.0 0.00 0.06 0.00 78 1015.0
20260902061203 75 0 0.0 0.0 0.00 0.06 0.00 77 1015.1
20260902061003 75 0 0.0 0.0 0.00 0.06 0.00 75 1015.1
20260902060803 75 0 0.0 0.0 0.00 0.06 0.00 73 1015.0
20260902060624 75 0 0.0 0.0 0.00 0.06 0.00 73 1015.0
20260902060403 75 0 0.0 0.0 0.00 0.06 0.00 73 1015.1
20260902060203 75 0 0.0 0.0 0.00 0.06 0.00 73 1015.1
20260902060024 75 0 0.0 0.0 0.00 0.06 0.00 73 1015.1
20260902055803 75 0 0.0 0.0 0.00 0.06 0.00 73 1015.1
20260902055603 75 0 0.0 0.0 0.00 0.06 0.00 73 1015.1
20260902055403 75 0 0.0 0.0 0.00 0.06 0.00 72 1015.1
20260902055203 75 0 0.0 0.0 0.00 0.06 0.00 72 1015.1
20260902055024 75 0 0.0 0.0 0.00 0.06 0.00 72 1015.2
20260902054824 75 0 0.0 0.0 0.00 0.06 0.00 72 1015.2
20260902054603 75 0 0.0 0.0 0.00 0.06 0.00 71 1015.2
20260902054403 75 0 0.0 0.0 0.00 0.06 0.00 71 1015.2
20260902054224 75 0 0.0 0.0 0.00 0.06 0.00 70 1015.1
20260902054003 76 0 0.0 0.0 0.00 0.06 0.00 70 1015.1
20260902053803 76 0 0.0 0.0 0.00 0.06 0.00 70 1015.1
20260902053603 76 0 0.0 0.0 0.00 0.06 0.00 70 1015.1
20260902053424 76 0 0.0 0.0 0.00 0.06 0.00 70 1015.1
20260902053224 76 0 0.0 0.0 0.00 0.06 0.00 70 1015.2
20260902053003 76 0 0.0 0.0 0.00 0.06 0.00 70 1015.2
20260902052803 76 0 0.0 0.0 0.00 0.06 0.00 70 1015.2
20260902052603 77 0 0.0 0.0 0.00 0.06 0.00 71 1015.2
20260902052403 77 0 0.0 0.0 0.00 0.06 0.00 71 1015.2
20260902052203 77 0 0.0 0.0 0.00 0.06 0.00 71 1015.3
20260902052003 77 0 0.0 0.0 0.00 0.06 0.00 71 1015.3
20260902051803 77 0 0.0 0.0 0.00 0.06 0.00 71 1015.3
20260902051603 77 0 0.0 0.0 0.00 0.06 0.00 71 1015.3
20260902051403 77 0 0.0 0.0 0.00 0.06 0.00 70 1015.4
20260902051203 78 0 0.0 0.0 0.00 0.06 0.00 71 1015.4
20260902051003 78 0 0.0 0.0 0.00 0.06 0.00 71 1015.4
20260902050803 78 0 0.0 0.0 0.00 0.06 0.00 70 1015.4
20260902050603 78 0 0.0 0.0 0.00 0.06 0.00 70 1015.4
20260902050424 78 0 0.0 0.0 0.00 0.06 0.00 71 1015.3
20260902050203 78 0 0.0 0.0 0.00 0.06 0.00 71 1015.3
20260902050024 78 0 0.0 0.0 0.00 0.06 0.00 71 1015.3
20260902045803 78 0 0.0 0.0 0.00 0.06 0.00 71 1015.3
20260902045603 78 0 0.0 0.0 0.00 0.06 0.00 71 1015.4
20260902045403 78 0 0.0 0.0 0.00 0.06 0.00 71 1015.3
20260902045203 78 0 0.0 0.0 0.00 0.06 0.00 71 1015.4
20260902045003 78 0 0.0 0.0 0.00 0.06 0.00 71 1015.4
20260902044824 78 0 0.0 0.0 0.00 0.06 0.00 72 1015.4
20260902044603 78 0 0.0 0.0 0.00 0.06 0.00 72 1015.4
20260902044403 78 0 0.0 0.0 0.00 0.06 0.00 74 1015.4
20260902044224 78 0 0.0 0.0 0.00 0.06 0.00 75 1015.4
20260902044003 78 0 0.0 0.0 0.00 0.06 0.00 77 1015.4
20260902043803 78 0 0.0 0.0 0.00 0.06 0.00 77 1015.4
20260902043603 78 0 0.0 0.0 0.00 0.06 0.00 77 1015.3
20260902043403 78 0 0.0 0.0 0.00 0.06 0.00 77 1015.3
20260902043203 78 0 0.0 0.0 0.00 0.06 0.00 77 1015.3
20260902043024 78 0 0.0 0.0 0.00 0.06 0.00 77 1015.3
20260902042803 78 0 0.0 0.0 0.00 0.06 0.00 77 1015.2
20260902042624 78 0 0.0 0.0 0.00 0.06 0.00 78 1015.2
20260902042424 78 0 0.0 0.0 0.00 0.06 0.00 78 1015.1
20260902042203 77 0 0.0 0.0 0.00 0.06 0.00 78 1015.1
20260902042003 77 0 0.0 0.0 0.00 0.06 0.00 78 1015.1
20260902041803 77 0 0.0 0.0 0.00 0.06 0.00 78 1015.1
20260902041603 77 0 0.0 0.0 0.00 0.06 0.00 77 1015.1
20260902041403 76 0 0.0 0.0 0.00 0.06 0.00 77 1015.0
20260902041203 76 0 0.0 0.0 0.00 0.06 0.00 77 1015.0
20260902041003 76 0 0.0 0.0 0.00 0.06 0.00 77 1015.1
20260902040803 76 0 0.0 0.0 0.00 0.06 0.00 77 1015.0
20260902040603 76 0 0.0 0.0 0.00 0.06 0.00 76 1015.0
20260902040403 76 0 0.0 0.0 0.00 0.06 0.00 75 1015.0
20260902040224 76 0 0.0 0.0 0.00 0.06 0.00 75 1015.0
20260902040003 76 0 0.0 0.0 0.00 0.06 0.00 74 1015.0
20260902035803 75 0 0.0 0.0 0.00 0.06 0.06 73 1015.0
20260902035603 76 0 0.0 0.0 0.00 0.06 0.06 73 1015.0
20260902035403 76 0 0.0 0.0 0.00 0.06 0.06 73 1014.9
20260902035203 76 0 0.0 0.0 0.00 0.06 0.06 73 1015.0
20260902035003 76 0 0.0 0.0 0.00 0.06 0.06 73 1015.0
20260902034803 76 0 0.0 0.0 0.00 0.06 0.06 73 1015.0
20260902034603 76 0 0.0 0.0 0.00 0.06 0.06 72 1015.0
20260902034403 76 0 0.0 0.0 0.00 0.06 0.06 72 1015.0
20260902034203 76 0 0.0 0.0 0.00 0.06 0.06 71 1015.0
20260902034003 76 0 0.0 0.0 0.00 0.06 0.06 71 1015.0
20260902033803 76 0 0.0 0.0 0.00 0.06 0.06 71 1015.0
20260902033603 76 0 0.0 0.0 0.00 0.06 0.06 71 1015.0
20260902033403 76 0 0.0 0.0 0.00 0.06 0.06 71 1014.9
20260902033203 76 0 0.0 0.0 0.00 0.06 0.06 71 1015.0
20260902033003 76 0 0.0 0.0 0.00 0.06 0.06 71 1014.9
20260902032824 76 0 0.0 0.0 0.00 0.06 0.06 71 1014.9
20260902032603 77 0 0.0 0.0 0.00 0.06 0.06 71 1014.9
20260902032424 77 0 0.0 0.0 0.00 0.06 0.06 71 1014.9
20260902032224 77 0 0.0 0.0 0.00 0.06 0.06 71 1014.9
20260902032003 77 0 0.0 0.0 0.00 0.06 0.06 71 1015.0
20260902031824 77 0 0.0 0.0 0.00 0.06 0.06 71 1014.9
20260902031603 77 0 0.0 0.0 0.00 0.06 0.06 71 1014.9
20260902031403 77 0 0.0 0.0 0.00 0.06 0.06 71 1015.0
20260902031203 77 0 0.0 0.0 0.00 0.06 0.06 71 1015.0
20260902031003 77 0 0.0 0.0 0.00 0.06 0.06 71 1015.0
20260902030803 77 0 0.0 0.0 0.00 0.06 0.06 71 1015.0
20260902030624 77 0 0.0 0.0 0.00 0.06 0.06 71 1014.9
20260902030403 77 0 0.0 0.0 0.00 0.06 0.06 70 1015.0
20260902030224 77 0 0.0 0.0 0.00 0.06 0.06 70 1015.0
20260902030003 78 0 0.0 0.0 0.00 0.06 0.06 70 1015.0
20260902025803 78 0 0.0 0.0 0.00 0.06 0.06 70 1015.0
20260902025624 78 0 0.0 0.0 0.00 0.06 0.06 70 1015.0
20260902025403 78 0 0.0 0.0 0.00 0.06 0.06 70 1015.0
20260902025224 78 0 0.0 0.0 0.00 0.06 0.06 70 1015.0
20260902025003 78 0 0.0 0.0 0.00 0.06 0.06 70 1015.0
20260902024803 78 0 0.0 0.0 0.00 0.06 0.06 70 1015.1
20260902024624 78 0 0.0 0.0 0.00 0.06 0.06 71 1015.0
20260902024403 78 0 0.0 0.0 0.00 0.06 0.06 71 1015.1
20260902024203 78 0 0.0 0.0 0.00 0.06 0.06 71 1015.1
20260902024003 78 0 0.0 0.0 0.00 0.06 0.06 71 1015.1
20260902023803 78 0 0.0 0.0 0.00 0.06 0.06 72 1015.0
20260902023603 78 0 0.0 0.0 0.00 0.06 0.06 72 1015.0
20260902023403 78 0 0.0 0.0 0.00 0.06 0.06 72 1015.0
20260902023203 78 0 0.0 0.0 0.00 0.06 0.06 72 1015.0
20260902023003 78 0 0.0 0.0 0.00 0.06 0.06 72 1015.0
20260902022803 78 0 0.0 0.0 0.00 0.06 0.06 72 1015.0
20260902022603 78 0 0.0 0.0 0.00 0.06 0.06 72 1014.9
20260902022403 78 0 0.0 0.0 0.00 0.06 0.06 72 1015.0
20260902022203 78 0 0.0 0.0 0.00 0.06 0.06 72 1014.9
20260902022003 78 0 0.0 0.0 0.00 0.06 0.06 72 1014.9
20260902021824 78 0 0.0 0.0 0.00 0.06 0.06 72 1014.8
20260902021603 78 0 0.0 0.0 0.00 0.06 0.06 72 1014.8
20260902021403 78 0 0.0 0.0 0.00 0.06 0.06 72 1014.8
20260902021224 78 0 0.0 0.0 0.00 0.06 0.06 72 1014.8
20260902021024 78 0 0.0 0.0 0.00 0.06 0.06 72 1014.8
20260902020803 78 0 0.0 0.0 0.00 0.06 0.06 71 1014.8
20260902020603 78 0 0.0 0.0 0.00 0.06 0.06 71 1014.8
20260902020403 78 0 0.0 0.0 0.00 0.06 0.06 72 1014.7
20260902020203 78 0 0.0 0.0 0.00 0.06 0.06 71 1014.7
20260902020003 78 0 0.0 0.0 0.00 0.06 0.06 72 1014.7
20260902015824 78 0 0.0 0.0 0.00 0.06 0.06 72 1014.6
20260902015603 78 0 0.0 0.0 0.00 0.06 0.06 72 1014.6
20260902015403 78 0 0.0 0.0 0.00 0.06 0.06 72 1014.6
20260902015203 78 0 0.0 0.0 0.00 0.06 0.06 72 1014.7
20260902015003 78 0 0.0 0.0 0.00 0.06 0.06 72 1014.7
20260902014803 78 0 0.0 0.0 0.00 0.06 0.06 72 1014.6
20260902014604 78 0 0.0 0.0 0.00 0.06 0.06 72 1014.6
20260902014403 78 0 0.0 0.0 0.00 0.06 0.06 72 1014.6
20260902014224 78 0 0.0 0.0 0.00 0.06 0.06 72 1014.7
20260902014003 78 0 0.0 0.0 0.00 0.06 0.06 72 1014.7
20260902013803 78 0 0.0 0.0 0.00 0.06 0.06 72 1014.7
20260902013603 78 0 0.0 0.0 0.00 0.06 0.06 71 1014.6
20260902013403 78 0 0.0 0.0 0.00 0.06 0.06 72 1014.6
20260902013203 78 0 0.0 0.0 0.00 0.06 0.06 72 1014.6
20260902013003 78 0 0.0 0.0 0.00 0.06 0.06 72 1014.6
20260902012803 78 0 0.0 0.0 0.00 0.06 0.06 72 1014.7
20260902012624 78 0 0.0 0.0 0.00 0.06 0.06 72 1014.7
20260902012403 78 0 0.0 0.0 0.00 0.06 0.06 72 1014.8
20260902012203 78 0 0.0 0.0 0.00 0.06 0.06 72 1014.8
20260902012003 78 0 0.0 0.0 0.00 0.06 0.06 72 1014.8
20260902011603 78 0 0.0 0.0 0.00 0.06 0.06 71 1014.9
20260902011403 78 0 0.0 0.0 0.00 0.06 0.06 71 1014.8
20260902011203 78 0 0.0 0.0 0.00 0.06 0.06 72 1014.9
20260902011003 78 0 0.0 0.0 0.00 0.06 0.06 72 1014.9
20260902010824 78 0 0.0 0.0 0.00 0.06 0.06 72 1014.9
20260902010603 78 0 0.0 0.0 0.00 0.06 0.06 72 1014.9
20260902010403 78 0 0.0 0.0 0.00 0.06 0.06 72 1015.0
20260902010203 78 0 0.0 0.0 0.00 0.06 0.06 72 1015.0
20260902010003 78 0 0.0 0.0 0.00 0.06 0.06 72 1014.9
20260902005824 78 0 0.0 0.0 0.00 0.06 0.06 72 1014.9
20260902005603 78 0 0.0 0.0 0.00 0.06 0.06 72 1015.0
20260902005403 78 0 0.0 0.0 0.00 0.06 0.06 72 1014.9
20260902005203 78 0 0.0 0.0 0.00 0.06 0.06 72 1014.9
20260902005003 78 0 0.0 0.0 0.00 0.06 0.06 72 1014.9
20260902004803 78 0 0.0 0.0 0.00 0.06 0.06 72 1014.9
20260902004603 78 0 0.0 0.0 0.00 0.06 0.06 73 1014.9
20260902004403 78 0 0.0 0.0 0.00 0.06 0.06 73 1014.9
20260902004203 78 0 0.0 0.0 0.00 0.06 0.06 73 1014.9
20260902004003 78 0 0.0 0.0 0.00 0.06 0.06 73 1015.0
20260902003803 78 0 0.0 0.0 0.00 0.06 0.06 73 1014.9
20260902003603 78 0 0.0 0.0 0.00 0.06 0.06 73 1014.9
20260902003403 78 0 0.0 0.0 0.00 0.06 0.06 73 1015.0
20260902003203 78 0 0.0 0.0 0.00 0.06 0.06 72 1015.0
20260902003003 78 0 0.0 0.0 0.00 0.06 0.06 72 1015.1
20260902002803 78 0 0.0 0.0 0.00 0.06 0.06 72 1015.1
20260902002603 78 0 0.0 0.0 0.00 0.06 0.06 72 1015.2
20260902002403 78 0 0.0 0.0 0.00 0.06 0.06 72 1015.2
20260902002203 78 0 0.0 0.0 0.00 0.06 0.06 72 1015.3
20260902002003 79 0 0.0 0.0 0.00 0.06 0.06 71 1015.3
20260902001824 79 0 0.0 0.0 0.00 0.06 0.06 71 1015.3
20260902001603 79 0 0.0 0.0 0.00 0.06 0.06 71 1015.3
20260902001403 79 0 0.0 0.0 0.00 0.06 0.06 71 1015.3
20260902001203 79 0 0.0 0.0 0.00 0.06 0.06 71 1015.3
20260902001024 79 0 0.0 0.0 0.00 0.06 0.06 71 1015.3
20260902000803 79 0 0.0 0.0 0.00 0.06 0.06 70 1015.2
20260902000603 79 0 0.0 0.0 0.00 0.06 0.06 70 1015.2
20260902000403 79 0 0.0 0.0 0.00 0.06 0.06 70 1015.2
20260902000226 79 0 0.0 0.0 0.00 0.06 0.06 70 1015.1
20260902000024 79 0 0.0 0.0 0.00 0.06 0.06 70 1015.1
20260901235803 80 0 0.0 0.0 0.00 0.06 0.06 70 1015.1
20260901235603 80 0 0.0 0.0 0.00 0.06 0.06 69 1015.0
20260901235403 80 0 0.0 0.0 0.00 0.06 0.06 69 1015.1
20260901235203 80 0 0.0 0.0 0.00 0.06 0.06 69 1015.0
20260901235003 80 0 0.0 0.0 0.00 0.06 0.06 69 1015.0
20260901234803 80 0 0.0 0.0 0.00 0.06 0.06 69 1014.9
20260901234603 80 0 0.0 0.0 0.00 0.06 0.06 69 1014.9
20260901234403 80 0 0.0 0.0 0.00 0.06 0.06 69 1014.9
20260901234203 80 0 0.0 0.0 0.00 0.06 0.06 69 1014.8
20260901234004 80 0 0.0 0.0 0.00 0.06 0.06 69 1014.9
20260901233803 80 0 0.0 0.0 0.00 0.06 0.06 69 1014.8
20260901233603 80 0 0.0 0.0 0.00 0.06 0.06 68 1014.9
20260901233403 80 0 0.0 0.0 0.00 0.06 0.06 68 1014.9
20260901233203 81 0 0.0 0.0 0.00 0.06 0.06 68 1014.8
20260901233003 81 0 0.0 0.0 0.00 0.06 0.06 68 1014.9
20260901232804 81 0 0.0 0.0 0.00 0.06 0.06 68 1014.9
20260901232603 81 0 0.0 0.0 0.00 0.06 0.06 68 1014.9
20260901232403 81 0 0.0 0.0 0.00 0.06 0.06 68 1014.9
20260901232203 81 0 0.0 0.0 0.00 0.06 0.06 68 1014.9
20260901232003 81 0 0.0 0.0 0.00 0.06 0.06 68 1014.9
20260901231803 81 0 0.0 0.0 0.00 0.06 0.06 69 1014.9
20260901231604 81 0 0.0 0.0 0.00 0.06 0.06 69 1014.8
20260901231403 80 0 0.0 0.0 0.00 0.06 0.06 69 1014.8
20260901231203 80 0 0.0 0.0 0.00 0.06 0.06 69 1014.9
20260901231003 80 0 0.0 0.0 0.00 0.06 0.06 69 1014.9
20260901230803 80 0 0.0 0.0 0.00 0.06 0.06 70 1015.0
20260901230603 80 0 0.0 0.0 0.00 0.06 0.06 70 1015.1
20260901230403 80 0 0.0 0.0 0.00 0.06 0.06 69 1015.1
20260901230203 80 0 0.0 0.0 0.00 0.06 0.06 69 1015.4
20260901230004 80 0 0.0 0.0 0.00 0.06 0.06 69 1015.5
20260901225824 80 0 0.0 0.0 0.00 0.06 0.06 69 1015.5
20260901225604 80 0 0.0 0.0 0.00 0.06 0.06 69 1015.6
20260901225403 80 0 0.0 0.0 0.00 0.06 0.06 69 1015.5
20260901225203 80 0 0.0 0.0 0.00 0.06 0.06 69 1015.6
20260901225024 80 0 0.0 0.0 0.00 0.06 0.06 69 1015.6
20260901224824 80 0 0.0 0.0 0.00 0.06 0.06 69 1015.6
20260901224603 80 0 0.0 0.0 0.00 0.06 0.06 69 1015.7
20260901224403 80 0 0.0 0.0 0.00 0.06 0.06 69 1015.7
20260901224203 80 0 0.0 0.0 0.00 0.06 0.06 69 1015.6
20260901224003 80 0 0.0 0.0 0.00 0.06 0.06 69 1015.6
20260901223824 80 0 0.0 0.0 0.00 0.06 0.06 69 1015.6
20260901223603 80 0 0.0 0.0 0.00 0.06 0.06 69 1015.6
20260901223403 80 0 0.0 0.0 0.00 0.06 0.06 69 1015.6
20260901223203 80 0 0.0 0.0 0.00 0.06 0.06 68 1015.5
20260901223003 80 0 0.0 0.0 0.00 0.06 0.06 69 1015.4
20260901222803 80 0 0.0 0.0 0.00 0.06 0.06 69 1015.4
20260901222603 80 0 0.0 0.0 0.00 0.06 0.06 69 1015.5
20260901222403 80 0 0.0 0.0 0.00 0.06 0.06 69 1015.5
20260901222203 80 0 0.0 0.0 0.00 0.06 0.06 69 1015.5
20260901222003 80 0 0.0 0.0 0.00 0.06 0.06 68 1015.4
20260901221803 80 0 0.0 0.0 0.00 0.06 0.06 68 1015.4
20260901221603 80 0 0.0 0.0 0.00 0.06 0.06 69 1015.4
20260901221403 80 0 0.0 0.0 0.00 0.06 0.06 69 1015.3
20260901221203 80 0 0.0 0.0 0.00 0.06 0.06 69 1015.3
20260901221003 79 0 0.0 0.0 0.00 0.06 0.06 69 1015.2
20260901220803 79 0 0.0 0.0 0.00 0.06 0.06 69 1015.1
20260901220624 79 0 0.0 0.0 0.00 0.06 0.06 69 1015.1
20260901220403 79 0 0.0 0.0 0.00 0.06 0.06 69 1015.1
20260901220224 79 0 0.0 0.0 0.00 0.06 0.06 69 1015.1
20260901220024 79 0 0.0 0.0 0.00 0.06 0.06 69 1015.2
20260901215803 79 0 0.0 0.0 0.00 0.06 0.06 68 1015.2
20260901215603 79 0 0.0 0.0 0.00 0.06 0.06 68 1015.2
20260901215403 79 0 0.0 0.0 0.00 0.06 0.06 68 1015.2
20260901215203 79 0 0.0 0.0 0.00 0.06 0.06 68 1015.2
20260901215003 79 0 0.0 0.0 0.00 0.06 0.06 68 1015.2
20260901214803 79 0 0.0 0.0 0.01 0.06 0.06 68 1015.2
20260901214624 79 0 0.0 0.0 0.01 0.06 0.06 68 1015.2
20260901214403 79 0 0.0 0.0 0.01 0.06 0.06 68 1015.4
20260901214203 79 0 0.0 0.0 0.01 0.06 0.06 68 1015.4
20260901214024 79 0 0.0 0.0 0.02 0.06 0.06 67 1015.4
20260901213803 79 0 0.0 0.0 0.03 0.06 0.06 67 1015.4
20260901213603 79 0 0.0 0.0 0.04 0.06 0.06 67 1015.4
20260901213403 79 0 0.0 0.0 0.04 0.06 0.06 67 1015.3
20260901213203 79 0 0.0 0.0 0.05 0.06 0.06 67 1015.4
20260901213003 79 0 0.0 0.0 0.05 0.06 0.06 67 1015.4
20260901212803 79 0 0.0 0.0 0.05 0.06 0.06 67 1015.4
20260901212603 79 0 0.0 0.0 0.05 0.06 0.06 66 1015.4
20260901212403 80 0 0.0 0.0 0.05 0.06 0.06 66 1015.4
20260901212203 80 0 0.0 0.0 0.05 0.06 0.06 66 1015.4
20260901212003 80 338 0.0 1.0 0.05 0.06 0.06 66 1015.2
20260901211803 80 338 0.0 1.0 0.05 0.06 0.06 65 1015.1
20260901211603 80 338 0.0 2.0 0.05 0.06 0.06 65 1015.0
20260901211403 79 338 1.0 2.0 0.05 0.06 0.06 66 1014.9
20260901211203 79 341 1.0 3.0 0.05 0.06 0.06 65 1014.9
20260901211003 79 346 1.0 3.0 0.05 0.06 0.06 65 1014.8
20260901210803 78 354 1.0 3.0 0.05 0.06 0.06 65 1014.9
20260901210603 78 360 1.0 3.0 0.05 0.06 0.06 65 1014.8
20260901210403 78 6 1.0 3.0 0.05 0.06 0.06 64 1014.9
20260901210203 78 43 2.0 5.0 0.05 0.06 0.06 65 1014.8
20260901210003 78 64 2.0 5.0 0.05 0.06 0.06 65 1014.9
20260901205824 78 81 2.0 5.0 0.05 0.06 0.06 65 1014.8
20260901205603 78 84 2.0 5.0 0.05 0.06 0.06 64 1014.8
20260901205424 78 72 2.0 5.0 0.05 0.06 0.06 64 1014.9
20260901205203 78 29 2.0 7.0 0.05 0.06 0.06 64 1014.8
20260901205003 78 4 3.0 11.0 0.05 0.06 0.06 63 1014.9
20260901204803 78 341 3.0 14.0 0.04 0.05 0.05 64 1014.9
20260901204624 78 330 3.0 14.0 0.04 0.05 0.05 62 1014.8
20260901204403 78 322 3.0 14.0 0.04 0.05 0.05 61 1014.8
20260901204224 78 322 3.0 14.0 0.04 0.05 0.05 65 1014.9
20260901204003 78 316 2.0 14.0 0.04 0.04 0.04 63 1015.0
20260901203803 78 327 2.0 5.0 0.03 0.03 0.03 66 1015.1
20260901203603 78 347 2.0 4.0 0.02 0.02 0.02 65 1015.2
20260901203403 78 346 2.0 5.0 0.02 0.02 0.02 65 1015.4
20260901203203 79 338 3.0 7.0 0.01 0.01 0.01 64 1015.3
20260901203003 79 332 3.0 7.0 0.01 0.01 0.01 64 1015.2
20260901202803 79 326 4.0 7.0 0.01 0.01 0.01 64 1015.1
20260901202603 79 321 4.0 7.0 0.01 0.01 0.01 63 1015.0
20260901202403 79 321 4.0 7.0 0.01 0.01 0.01 63 1015.0
20260901202224 79 321 3.0 7.0 0.01 0.01 0.01 63 1015.0
20260901202003 79 316 3.0 7.0 0.01 0.01 0.01 62 1014.9
20260901201803 79 312 3.0 5.0 0.01 0.01 0.01 62 1014.8
20260901201603 79 308 3.0 5.0 0.01 0.01 0.01 62 1014.6
20260901201403 79 303 2.0 5.0 0.01 0.01 0.01 63 1014.7
20260901201224 79 302 2.0 5.0 0.01 0.01 0.01 64 1014.5
20260901201024 79 300 2.0 5.0 0.01 0.01 0.01 63 1014.3
20260901200803 79 298 1.0 5.0 0.01 0.01 0.01 64 1014.5
20260901200603 79 300 2.0 5.0 0.01 0.01 0.01 63 1014.5
20260901200403 79 305 2.0 6.0 0.01 0.01 0.01 63 1014.4
20260901200203 79 303 2.0 6.0 0.01 0.01 0.01 63 1014.3
20260901200024 79 304 3.0 7.0 0.01 0.01 0.01 63 1014.5
20260901195803 79 304 3.0 7.0 0.01 0.01 0.01 63 1014.8
20260901195603 79 305 2.0 7.0 0.01 0.01 0.01 63 1014.8
20260901195403 79 304 2.0 7.0 0.01 0.01 0.01 64 1014.7
20260901195203 80 305 3.0 7.0 0.01 0.01 0.01 66 1015.0
20260901195003 80 309 3.0 9.0 0.01 0.01 0.01 67 1015.4
20260901194824 80 310 3.0 9.0 0.01 0.01 0.01 67 1015.4
20260901194603 80 311 3.0 9.0 0.01 0.01 0.01 66 1015.3
20260901194403 80 311 4.0 11.0 0.01 0.01 0.01 67 1015.7
20260901194203 80 311 5.0 11.0 0.01 0.01 0.01 66 1015.8
20260901194003 80 309 5.0 11.0 0.00 0.00 0.00 67 1015.9
20260901193803 80 309 5.0 11.0 0.00 0.00 0.00 67 1016.1
20260901193603 80 309 5.0 11.0 0.00 0.00 0.00 66 1016.3
20260901193424 80 311 5.0 10.0 0.00 0.00 0.00 66 1016.3
20260901193203 80 312 4.0 8.0 0.00 0.00 0.00 66 1016.2
20260901193003 81 315 4.0 8.0 0.00 0.00 0.00 66 1016.1
20260901192803 81 315 4.0 6.0 0.00 0.00 0.00 67 1016.1
20260901192603 81 314 3.0 6.0 0.00 0.00 0.00 66 1016.1
20260901192403 81 308 3.0 6.0 0.00 0.00 0.00 67 1015.8
20260901192203 81 307 3.0 6.0 0.00 0.00 0.00 66 1015.8
20260901191803 81 301 2.0 5.0 0.00 0.00 0.00 66 1015.4
20260901191603 82 299 2.0 4.0 0.00 0.00 0.00 66 1015.4
20260901191403 82 301 2.0 4.0 0.00 0.00 0.00 66 1015.3
20260901191203 82 305 2.0 4.0 0.00 0.00 0.00 65 1015.1
20260901191003 82 306 3.0 4.0 0.00 0.00 0.00 66 1015.6
20260901190803 82 308 3.0 4.0 0.00 0.00 0.00 66 1015.8
20260901190603 82 311 3.0 4.0 0.00 0.00 0.00 65 1015.9
20260901190403 82 312 3.0 5.0 0.00 0.00 0.00 65 1016.1
20260901190203 82 311 3.0 5.0 0.00 0.00 0.00 65 1016.2
20260901190003 82 311 3.0 5.0 0.00 0.00 0.00 65 1016.2
20260901185803 82 310 3.0 5.0 0.00 0.00 0.00 65 1016.1
20260901185624 82 309 3.0 5.0 0.00 0.00 0.00 65 1016.1
20260901185424 82 310 3.0 5.0 0.00 0.00 0.00 66 1016.0
20260901185203 82 315 2.0 5.0 0.00 0.00 0.00 66 1015.8
20260901185003 82 320 2.0 5.0 0.00 0.00 0.00 66 1015.8
20260901184803 82 331 2.0 5.0 0.00 0.00 0.00 66 1016.0
20260901184603 82 337 2.0 5.0 0.00 0.00 0.00 66 1016.1
20260901184403 81 349 2.0 5.0 0.00 0.00 0.00 66 1016.3
20260901184203 82 347 2.0 5.0 0.00 0.00 0.00 66 1016.3
20260901184003 82 346 2.0 5.0 0.00 0.00 0.00 66 1016.3
20260901183803 82 350 2.0 5.0 0.00 0.00 0.00 66 1016.2
20260901183603 82 350 2.0 5.0 0.00 0.00 0.00 65 1016.1
20260901183403 81 349 2.0 5.0 0.00 0.00 0.00 66 1016.1
20260901183203 82 354 2.0 5.0 0.00 0.00 0.00 66 1016.1
20260901183003 82 359 1.0 4.0 0.00 0.00 0.00 66 1016.2
20260901182824 82 356 1.0 4.0 0.00 0.00 0.00 66 1016.1
20260901182603 82 339 1.0 4.0 0.00 0.00 0.00 66 1016.1
20260901182403 82 326 1.0 4.0 0.00 0.00 0.00 65 1015.9
20260901182224 82 322 1.0 4.0 0.00 0.00 0.00 65 1015.9
20260901182003 82 321 1.0 4.0 0.00 0.00 0.00 66 1016.0
20260901181803 82 318 1.0 4.0 0.00 0.00 0.00 65 1016.0
20260901181603 82 315 2.0 6.0 0.00 0.00 0.00 66 1016.0
20260901181403 82 309 2.0 6.0 0.00 0.00 0.00 65 1016.0
20260901181224 82 310 2.0 6.0 0.00 0.00 0.00 65 1016.0
20260901181003 83 309 4.0 6.0 0.00 0.00 0.00 65 1016.1
20260901180803 83 309 4.0 7.0 0.00 0.00 0.00 65 1016.1
20260901180603 83 308 4.0 7.0 0.00 0.00 0.00 65 1015.9
20260901180403 83 308 4.0 7.0 0.00 0.00 0.00 65 1015.9
20260901180203 83 306 4.0 7.0 0.00 0.00 0.00 64 1016.0
20260901180003 83 307 4.0 7.0 0.00 0.00 0.00 64 1015.9
20260901175803 83 308 4.0 6.0 0.00 0.00 0.00 64 1015.9
20260901175603 83 309 3.0 7.0 0.00 0.00 0.00 64 1015.7
20260901175403 83 311 3.0 7.0 0.00 0.00 0.00 63 1015.8
20260901175224 83 315 4.0 7.0 0.00 0.00 0.00 63 1015.9
20260901175003 84 320 3.0 7.0 0.00 0.00 0.00 63 1016.0
20260901174803 84 324 3.0 7.0 0.00 0.00 0.00 63 1015.9
20260901174604 84 328 3.0 7.0 0.00 0.00 0.00 64 1016.1